Location: Praha
(50.0830°N, 14.4670°E)
Time: 03:40:54
(UTC+02:00)

ISS - Pass Details

Date: 26 May 2021
Orbit: 417 x 422 km, 51.6° (Epoch: 13 June)

Event Time Altitude Azimuth Distance (km) Brightness Sun altitude
Rises 23:01:27 0° 287° (WNW) 2,368 0.8 -14.0°
Reaches altitude 10° 23:03:38 10° 280° (W) 1,502 -0.4 -14.2°
Maximum altitude 23:06:48 38° 210° (SSW) 652 -3.1 -14.4°
Enters shadow 23:07:47 30° 169° (S) 778 -3.0 -14.5°
